Location: Nians�bougou
(13.2321°N, 4.9818°W)
Time: 08:05:01
(UTC+00:00)

Meteor 1-27 - Pass Details

Date: 18 February 2020
Orbit: 839 x 891 km, 81.3° (Epoch: 08 April)

Event Time Altitude Azimuth Distance (km) Brightness Sun altitude
Rises 05:09:11 0° 193° (SSW) 3,414 7.3 -23.0°
Reaches altitude 10° 05:11:38 10° 197° (SSW) 2,472 6.5 -22.4°
Maximum altitude 05:17:08 59° 276° (W) 965 4.1 -21.1°
Drops below altitude 10° 05:22:36 10° 355° (N) 2,450 6.5 -19.8°
Sets 05:25:02 0° 359° (N) 3,383 7.3 -19.2°
